Probability
1 2 3 3 6 11 14 16 19 20 15 13 24 39 44 42 39 33 21 9 3 1 0 0 0 0 0 0 0 0 0 0 0 0 0 0 0 0 0 0 0 0 0
0 1 2 3 4 6 7 10 15 19 18 17 26 40 45 42 40 33 23 13 5 1 0 0 0 0 0 0 0 0 0 0 0 0 0 0 0 0 0 0 0 0 0
0 0 1 2 3 2 2 3 8 14 15 16 27 41 45 44 43 36 27 17 9 2 0 0 0 0 0 0 0 0 0 0 0 0 0 0 0 0 0 0 0 0 0
0 0 0 1 3 2 1 1 3 6 8 10 20 33 40 42 43 38 29 21 12 4 2 1 1 0 0 0 0 0 0 0 0 0 0 0 0 0 0 0 0 0 0
0 0 0 1 2 2 1 0 1 2 2 3 8 16 25 31 35 33 28 23 14 6 3 3 2 1 1 0 0 0 0 0 0 0 0 0 0 0 0 0 0 0 0
0 0 0 0 1 1 1 0 0 0 0 0 1 5 10 17 23 24 22 19 13 6 3 3 2 2 1 0 0 0 0 0 0 0 0 0 0 0 0 0 0 0 0
0 0 0 0 0 0 0 0 0 0 0 0 0 1 4 8 13 15 14 12 9 5 3 2 1 1 0 0 0 0 0 1 1 1 0 0 0 0 0 0 0 0 0
0 0 0 0 0 0 0 0 0 0 0 0 0 0 1 3 6 7 7 6 5 3 2 1 1 0 0 0 0 0 0 1 2 1 0 0 0 0 0 0 0 0 0
0 0 0 0 0 0 0 0 0 1 1 1 0 0 0 1 1 3 3 2 2 1 0 0 1 0 0 0 0 0 0 1 1 1 0 0 0 0 0 0 0 0 0
0 0 0 0 0 0 0 0 0 1 2 1 0 0 0 0 0 1 1 1 0 0 0 0 0 0 0 0 0 0 0 0 0 0 0 0 0 0 0 0 0 0 0
0 0 0 0 0 0 0 0 0 1 1 1 0 0 0 0 0 0 0 0 0 0 0 0 0 0 0 0 0 0 0 0 0 0 0 0 0 0 0 0 0 0 0
0 0 0 0 0 0 0 0 0 0 0 0 0 0 0 0 0 0 0 0 0 0 0 0 0 0 0 0 0 0 0 0 0 0 0 0 0 0 0 0 0 0 0
0 0 0 0 0 0 0 0 0 0 0 0 0 0 0 0 0 0 0 0 0 0 0 0 0 0 0 0 0 0 0 0 0 0 0 0 0 0 0 0 0 0 0
0 0 0 0 0 0 0 0 0 0 0 0 0 0 0 0 0 0 0 0 0 0 0 0 0 0 0 0 0 0 0 0 0 0 0 0 0 0 0 0 0 0 0
0 0 0 0 0 0 0 0 0 0 0 0 0 0 0 0 0 0 0 0 0 0 0 0 0 0 0 0 0 0 0 0 0 0 0 0 0 0 0 0 0 0 0
0 0 0 0 0 0 0 0 0 0 0 0 0 0 0 0 0 0 0 0 0 0 0 0 0 0 0 0 0 0 0 0 0 0 0 0 0 0 0 0 0 0 0
0 0 0 0 0 0 0 0 0 0 0 0 0 0 0 0 0 0 0 0 0 0 0 0 0 0 0 0 0 0 0 0 0 0 0 0 0 0 0 0 0 0 0
0 0 0 0 0 0 0 0 0 0 0 0 0 0 0 0 0 0 0 0 0 0 0 0 0 0 0 0 0 0 0 0 0 0 0 0 0 0 0 0 0 0 0
0 0 0 0 0 0 0 0 0 0 0 0 0 0 0 0 0 0 0 0 0 0 0 0 0 0 0 0 0 0 0 0 0 0 0 0 0 0 0 0 0 0 0
0 0 0 0 0 0 0 0 0 0 0 0 0 0 0 0 0 0 0 0 0 0 0 0 0 0 0 0 0 0 0 0 0 0 0 0 0 0 0 0 0 0 0
0 0 0 0 0 0 0 0 0 0 0 0 0 0 0 0 0 0 0 0 0 0 0 0 0 0 0 0 0 0 0 0 0 0 0 0 0 0 0 0 0 0 0
0 0 0 0 0 0 0 0 0 0 0 0 0 0 0 0 0 0 0 0 0 0 0 0 0 0 0 0 0 0 0 0 0 0 0 0 0 0 0 0 0 0 0
0 0 0 0 0 0 0 0 0 0 0 0 0 0 0 0 0 0 0 0 0 0 0 0 0 0 0 0 0 0 0 0 0 0 0 0 0 0 0 0 0 0 0
0 0 0 0 0 0 0 0 0 0 0 0 0 0 0 0 0 0 0 0 0 0 0 0 0 0 0 0 0 0 0 0 0 0 0 0 0 0 0 0 0 0 0
0 0 0 0 0 0 0 0 0 0 0 0 0 0 0 0 0 0 0 0 0 0 0 0 0 0 0 0 0 0 0 0 0 0 0 0 0 0 0 0 0 0 0
0 0 0 0 0 0 0 0 0 0 0 0 0 0 0 0 0 0 0 0 0 0 0 0 0 0 0 0 0 0 0 0 0 0 0 0 0 0 0 0 0 0 0
Wind_Speed
11 12 12 11 10 10 10 8 8 7 4 1 2 4 5 5 5 5 7 7 7 8 8 6 6 5 4 5 5 4 3 2 2 3 2 2 2 2 2 3 4 5 6
16 16 14 13 12 11 10 9 8 7 5 3 2 2 3 3 4 3 4 5 6 7 7 7 6 5 5 4 4 4 3 1 2 3 2 1 3 3 1 2 4 5 5
15 16 15 13 12 11 11 10 9 8 7 5 2 1 1 0 1 2 3 3 4 5 5 6 5 5 5 4 4 4 5 3 1 2 4 3 4 2 3 2 2 3 4
15 13 14 13 12 11 10 9 9 8 7 6 3 4 5 5 5 4 3 3 2 3 4 5 4 4 3 4 4 4 4 4 3 1 1 2 3 3 2 3 2 2 4
15 14 13 12 11 11 9 9 9 8 8 7 5 2 3 4 3 4 5 4 3 3 4 5 5 5 4 4 4 4 4 3 3 3 2 2 1 2 2 2 2 2 2
14 13 11 10 10 9 8 8 8 8 8 8 6 3 1 3 5 5 5 4 3 3 4 4 4 3 3 4 4 4 4 3 4 3 3 3 3 3 3 4 3 3 3
12 12 12 11 10 10 9 8 8 7 8 7 7 6 4 3 3 3 4 4 3 2 4 4 3 3 3 3 3 3 3 4 4 4 3 3 3 3 3 3 3 3 3
11 12 12 10 9 9 8 7 7 7 7 7 6 6 6 4 3 4 3 3 2 2 2 2 2 2 2 2 2 2 3 3 4 4 4 3 3 4 4 4 4 2 2
13 12 11 10 9 8 8 7 6 6 6 6 5 6 6 5 5 5 4 3 2 1 2 2 1 0 0 1 2 2 2 2 3 3 4 3 3 3 3 3 4 4 3
13 12 10 9 8 8 7 7 7 6 6 6 5 5 5 5 5 5 5 4 3 3 3 3 1 1 1 1 1 1 2 2 2 2 3 3 2 2 3 3 3 3 4
11 11 10 9 8 8 7 7 7 7 7 7 5 6 5 5 5 5 4 3 3 2 2 1 1 1 1 1 1 2 2 2 2 2 3 4 3 3 2 2 2 3 3
9 9 9 9 8 8 8 7 7 7 7 6 6 6 5 5 5 4 4 3 3 3 2 2 2 2 2 2 1 1 1 2 3 3 3 3 3 3 2 2 3 2 3
8 7 7 7 8 8 7 7 8 7 7 6 6 7 7 6 6 5 5 5 4 4 3 3 4 3 3 3 2 1 1 1 1 2 3 3 3 3 2 3 2 2 2
7 6 6 7 7 7 7 7 7 7 7 7 7 8 7 7 6 6 6 6 5 5 5 5 4 3 3 3 3 2 2 2 1 1 1 2 4 4 3 3 2 2 1
7 7 6 5 5 6 6 7 7 7 7 8 8 8 7 7 7 7 8 7 7 8 6 6 6 5 4 5 4 2 2 2 2 2 1 1 3 4 3 3 3 3 2
6 6 5 5 5 5 5 6 6 6 7 8 8 8 8 8 8 7 7 7 7 7 7 7 7 7 6 9 8 4 2 2 2 2 2 1 2 1 2 3 4 4 3
6 6 5 4 3 3 3 5 5 5 6 7 7 7 7 8 7 7 8 7 7 7 7 7 6 6 8 12 11 9 3 3 2 1 1 1 2 2 1 1 2 1 2
6 6 5 4 2 2 3 4 5 5 6 6 6 6 7 7 7 7 7 6 5 5 6 6 6 6 10 15 13 10 6 4 4 3 2 2 2 2 2 2 2 0 1
3 3 3 2 2 2 2 3 4 5 5 5 5 5 6 6 7 7 6 5 5 5 5 5 6 7 9 15 14 11 4 4 5 4 3 3 2 3 3 4 3 2 2
3 3 3 3 2 1 2 3 3 4 4 4 4 4 5 6 6 6 5 5 5 5 5 6 6 7 7 14 15 11 3 4 3 3 4 5 4 4 4 3 4 3 1
3 3 3 3 1 0 2 2 2 2 1 3 4 5 5 5 6 6 5 5 6 6 6 6 6 7 8 12 15 12 4 3 3 3 3 3 6 6 6 4 3 3 3
4 4 3 3 2 1 1 1 1 1 2 4 5 5 6 5 6 6 6 6 6 6 6 6 6 6 7 9 12 14 11 6 3 3 2 3 7 8 8 5 6 7 6
4 3 3 3 3 2 0 0 2 1 3 5 4 4 5 5 5 6 6 5 5 5 5 5 5 5 6 8 14 14 13 11 5 4 7 9 10 9 8 10 10 7 5
4 3 3 3 3 3 1 1 1 3 5 5 4 4 4 5 5 5 5 5 5 5 5 5 5 5 5 6 6 6 6 8 7 5 8 11 13 9 9 9 8 6 5
3 3 3 3 2 2 2 2 2 4 5 4 3 3 3 4 4 4 4 4 3 3 3 2 3 4 5 7 9 6 5 4 5 4 6 6 6 7 7 6 6 6 5
3 4 4 3 2 1 2 2 2 5 5 4 3 2 2 2 2 3 3 5 4 5 6 5 4 3 6 8 11 13 13 12 10 8 7 7 6 6 6 6 6 6 5
Wind_Direction
7 8 11 12 13 15 15 10 360 349 347 291 226 203 200 196 196 194 193 189 184 180 175 169 166 159 160 166 156 139 134 134 133 100 49 344 316 255 220 192 183 195 200
2 2 2 7 8 6 5 4 354 341 328 293 248 225 209 194 194 190 187 182 175 170 170 164 163 157 152 156 153 138 135 144 137 129 119 346 329 312 271 203 195 199 197
358 355 354 357 0 1 360 356 345 340 330 314 271 198 153 103 165 180 185 179 169 161 156 163 159 158 155 163 163 153 147 158 170 142 145 158 216 283 313 277 215 197 198
352 350 348 350 352 350 349 346 345 343 339 331 297 216 195 197 193 175 169 143 149 153 148 155 159 156 158 163 173 166 157 153 167 177 173 172 161 163 289 316 306 228 211
344 342 343 342 342 343 346 346 346 349 346 347 338 279 219 204 162 150 154 152 145 142 154 161 161 162 164 172 179 170 165 166 169 171 168 176 190 165 171 258 301 316 261
340 337 338 339 340 342 346 348 349 350 351 355 360 360 207 171 154 161 166 161 153 152 156 152 157 161 165 175 183 181 174 179 179 177 174 172 177 186 180 210 237 262 278
340 337 338 338 338 340 346 348 349 352 354 2 9 15 32 75 123 145 152 146 146 157 164 158 153 161 169 178 181 181 182 190 188 192 189 191 199 176 175 182 211 237 276
344 342 338 336 337 345 348 349 355 357 358 7 13 22 34 49 61 74 92 108 115 123 138 139 144 160 164 185 192 185 198 199 199 200 192 192 203 190 185 177 171 200 273
344 343 345 346 348 353 352 356 6 7 6 11 24 34 39 53 62 63 67 75 84 102 99 93 101 159 182 219 206 194 199 198 197 196 195 189 195 189 190 181 171 168 201
351 350 350 351 353 352 353 8 14 16 16 20 30 44 41 49 58 63 63 63 63 58 55 57 50 346 301 268 205 185 206 191 200 187 173 188 187 187 189 184 180 173 175
347 351 350 351 354 359 4 12 17 24 25 26 31 38 39 44 55 57 53 56 64 60 57 60 41 346 312 295 208 210 201 191 211 203 193 205 188 185 189 179 172 176 172
340 343 346 351 357 2 7 11 16 23 21 20 30 36 35 41 49 46 36 33 33 36 40 45 46 27 16 18 10 264 211 195 208 212 205 216 198 192 191 181 188 189 188
339 343 347 356 357 3 8 13 17 15 15 21 29 32 29 31 35 30 27 30 33 38 41 54 59 48 42 34 14 345 351 309 234 216 203 204 183 192 190 181 183 192 189
345 352 352 358 1 6 10 13 15 16 20 25 31 32 27 28 31 30 30 31 34 43 49 57 63 63 59 45 26 19 27 359 328 292 195 183 174 178 173 166 170 162 155
352 353 357 2 5 11 13 17 21 24 27 34 35 31 28 31 36 38 40 41 48 56 55 55 49 46 50 36 24 22 39 29 29 29 43 158 163 172 167 158 161 147 136
355 354 360 11 17 21 23 26 28 25 32 38 33 30 33 37 37 39 42 46 50 54 58 57 51 44 37 30 30 26 26 45 52 31 18 74 104 132 148 150 156 156 153
356 358 1 14 22 24 34 36 33 33 37 37 33 32 36 37 33 40 46 46 47 52 54 51 47 40 27 33 34 37 43 47 57 61 51 70 74 90 88 94 106 118 148
355 352 357 13 24 33 38 40 39 41 41 37 33 32 36 35 31 37 40 39 41 48 49 45 39 34 29 33 34 38 41 48 45 45 64 89 70 83 119 121 115 89 7
343 335 346 14 38 45 53 57 41 39 41 38 36 34 39 39 35 33 29 28 40 42 40 39 36 33 20 28 34 40 36 49 42 37 45 66 71 61 111 123 120 94 26
334 338 349 22 39 27 77 75 46 40 38 39 45 45 46 47 41 35 33 33 45 44 44 42 34 30 19 22 31 37 41 47 37 31 29 41 54 62 90 118 127 123 118
332 349 5 9 348 256 99 79 47 31 37 61 58 49 49 54 48 43 39 40 46 46 43 41 31 25 17 16 24 32 40 43 41 36 25 19 40 60 72 84 101 119 128
340 351 5 354 324 288 111 65 337 327 78 81 68 56 46 50 50 49 41 38 41 43 34 30 24 15 8 11 16 28 38 44 56 40 18 22 46 60 61 63 77 91 95
343 344 357 350 338 326 178 244 291 91 104 96 82 74 63 51 47 50 45 39 35 40 32 29 25 9 3 5 16 24 32 38 51 49 52 57 56 57 54 52 61 69 76
341 341 353 357 342 332 332 308 312 121 116 116 110 94 82 64 49 45 44 47 37 35 33 30 21 7 4 5 3 8 21 31 44 46 50 56 57 57 52 49 49 50 59
335 347 353 343 328 334 350 6 81 117 116 125 127 112 100 95 74 59 46 48 37 32 40 24 11 12 9 360 16 32 30 34 46 57 53 49 47 49 45 44 43 41 44
340 346 348 349 340 355 1 20 90 123 124 124 136 139 135 125 114 102 62 30 30 32 43 45 39 8 19 30 43 47 46 49 57 66 61 55 51 50 47 46 42 39 38